SCP
0 0 0 0 0 0 0 0 0 0 0 0 0 0 0 0 -0 0 0 0 0 0 0 0 0 0 -0 -0 0 0 0 0 0 0 0 -0 0 0 0 0 0 0 0 0
0 0 0 0 0 0 0 0 0 0 0 0 0 0 -0 0 -0 0 0 0 0 0 0 0 -0 -0 -0 0 0 -0 0 0 0 0 0 0 0 0 0 0 0 0 0 0
0 0 0 0 0 0 0 0 0 -0 0 0 -0 0 0 0 0 -0 -0 0 0 0 0 0 0 -0 -0 0 0 0 0 0 0 0 0 0 0 0 0 0 0 0 0 0
0 0 0 0 0 0 0 0 0 -0 0 0 -0 -0 0 0 0 0 -0 0 0 -0 0 -0 0 0 0 0 0 0 0 0 0 0 0 0 0 0 0 0 0 0 0 0
0 0 0 0 0 -0 0 0 0 -0 -0 -0 -0 -0 0 0 0 0 0 0 0 0 0 0 0 0 0 0 0 0 0 0 0 0 0 0 0 -0 0 -0 -0 -0 0 0
0 0 0 0 0 0 0 0 -0 0 -0 -0 -0 -0 -0 -0 0 0 0 0 0 0 0 0 -0 0 0 0 0 0 0 0 0 0 0 0 0 0 0 0 0 0 0 0
0 0 0 0 0 0 0 -0 -0 -0 -0 -0 -0 -0 -0 -0 -0 0 0 0 0 0 0 0 0 0 0 0 0 0 0 0 0 0 0 0 0 0 0 0 0 0 0 0
0 0 0 -0 0 0 0 -0 -0 -0 0 -0 -0 -0 -0 -0 0 0 -0 0 0 0 0 0 0 0 0 0 0 0 0 0 0 0 0 0 0 0 0 0 0 0 0 0
-0 -0 0 0 0 -0 0 0 0 -0 0 0 -0 -0 -0 0 -0 0 0 0 0 0 0 0 0 0 0 0 0 0 0 0 0 0 0 0 0 0 0 0 0 0 0 0
-0 -0 0 0 -0 0 0 -0 -0 -0 0 0 0 0 -0 -0 -0 -0 0 0 0 0 0 0 0 0 0 0 0 0 0 0 0 0 0 0 0 0 0 0 0 0 0 0
-0 -0 0 -0 0 0 0 -0 -0 -0 0 0 -0 0 -0 -0 0 0 0 0 0 0 0 0 0 0 0 0 0 0 0 0 0 0 0 0 0 0 0 0 0 0 0 0
0 0 0 -0 0 -0 0 -0 -0 -0 0 -0 -0 -0 -0 0 0 0 0 0 0 0 0 0 0 0 0 0 0 0 0 0 0 0 0 0 0 0 0 0 0 0 0 0
0 -0 -0 -0 0 0 0 -0 0 0 -0 0 0 -0 -0 -0 0 0 0 0 0 0 0 0 0 0 0 0 0 0 0 0 0 0 0 0 0 0 0 0 0 0 0 0
0 -0 -0 -0 -0 -0 -0 -0 0 0 0 0 0 -0 -0 -0 0 0 0 0 0 0 0 0 0 0 0 0 0 0 0 0 0 0 0 0 0 0 0 0 0 0 0 0
0 -0 -0 -0 -0 -0 -0 -0 0 -0 0 0 -0 -0 -0 0 0 0 0 0 0 0 0 0 0 0 0 0 0 0 0 0 0 0 0 0 0 0 0 0 0 0 0 0
0 -0 -0 -0 -0 -0 0 0 -0 0 0 0 0 0 -0 -0 0 0 0 0 0 0 0 0 0 0 0 0 0 0 0 0 0 0 0 0 0 0 0 0 0 0 0 0
-0 -0 -0 -0 -0 -0 -0 -0 -0 -0 -0 0 0 0 0 -0 0 0 0 0 0 0 0 0 0 0 0 0 0 0 0 0 0 -0 -0 0 0 0 0 0 0 0 0 0
-0 -0 -0 -0 0 -0 0 0 0 -0 -0 0 0 0 -0 0 0 0 0 0 0 0 0 0 0 0 0 0 0 0 0 0 0 0 0 0 0 0 0 0 0 0 0 0
-0 -0 -0 -0 -0 -0 0 0 -0 -0 0 0 0 0 0 0 0 0 0 0 0 0 0 0 0 0 0 0 0 0 0 0 0 0 0 0 0 0 0 0 0 0 0 0
-0 0 -0 -0 0 0 -0 0 0 0 0 0 0 -0 0 0 0 0 0 0 0 0 0 0 0 0 0 0 0 0 0 0 0 0 0 0 0 0 0 0 0 0 0 0
0 0 0 -0 -0 -0 0 0 0 0 0 0 0 0 0 -0 0 0 0 0 0 0 0 -0 0 0 0 0 0 0 0 0 0 0 0 0 0 0 0 0 0 0 0 0
0 0 -0 0 0 0 0 0 0 0 0 0 0 0 0 0 -0 -0 0 0 0 0 -0 -0 -0 -0 0 -0 -0 0 0 0 0 0 0 0 0 0 0 0 0 0 0 0
0 -0 -0 -0 -0 0 0 0 0 0 0 0 0 0 0 0 0 0 0 0 0 0 -0 0 0 -0 0 -0 -0 -0 0 -0 -0 0 0 0 0 0 0 0 0 0 0 0
-0 0 0 0 0 0 0 0 0 0 0 0 0 0 0 0 0 0 0 0 0 -0 0 -0 0 -0 -0 -0 -0 -0 -0 -0 -0 0 0 0 0 0 0 0 0 0 0 0
0 0 0 0 0 0 0 -0 -0 0 0 0 0 0 0 0 0 0 0 -0 -0 0 0 0 0 0 -0 0 -0 0 0 0 0 0 0 0 0 0 0 0 0 0 0 0
0 -0 0 0 0 -0 0 0 0 0 0 0 -0 0 -0 0 0 0 -0 0 0 0 0 -0 -0 -0 0 0 0 0 0 0 0 0 0 0 0 0 0 0 0 -0 -0 -0
0 0 0 0 0 0 0 -0 -0 0 0 0 -0 0 0 0 0 0 0 0 0 -0 0 -0 -0 0 -0 0 0 0 0 -0 -0 -0 -0 -0 -0 0 -0 -0 -0 -0 0 0
Wind_Speed_500mb
56 61 63 66 64 66 46 31 15 5 10 8 11 25 42 30 37 34 19 19 33 34 8 10 10 12 18 79 50 54 48 17 25 37 35 43 36 22 27 19 15 20 20 8
52 54 57 60 55 54 52 26 56 30 43 13 23 20 36 22 28 20 18 23 33 20 29 14 21 20 30 61 35 55 41 16 20 13 19 19 29 24 16 8 9 20 14 6
47 49 53 54 50 45 47 23 16 41 15 21 28 26 29 24 16 19 21 15 30 9 13 11 7 12 11 39 60 48 30 26 35 18 12 31 38 35 27 15 8 20 8 2
46 47 53 54 50 47 37 16 14 29 14 28 34 33 28 28 20 17 7 19 15 16 12 22 8 5 13 45 6 29 30 25 19 18 8 9 21 31 22 27 25 20 10 29
47 43 46 49 52 54 32 17 13 16 49 42 40 29 24 16 22 20 21 19 13 12 11 12 11 12 18 20 24 35 16 19 27 17 17 19 18 25 33 29 26 26 17 18
46 42 43 44 46 46 23 37 38 24 26 25 26 24 36 38 22 13 13 20 10 16 12 15 10 12 13 13 18 24 30 21 22 21 21 16 8 18 20 12 9 8 14 6
48 46 42 41 44 43 37 42 38 12 15 17 22 45 53 29 17 11 18 30 7 7 10 13 15 9 17 23 10 23 17 28 15 16 22 19 16 5 6 21 11 7 14 9
46 43 45 44 43 41 39 33 33 9 8 24 36 42 41 31 23 18 11 20 14 10 15 7 9 6 12 7 8 11 25 19 11 14 18 23 16 11 13 25 20 13 18 16
44 42 46 47 44 39 41 36 29 13 13 8 38 32 40 10 10 5 14 9 10 9 5 8 10 7 13 8 8 17 22 15 8 17 15 10 26 15 22 27 16 20 19 16
45 43 49 51 45 37 32 25 23 13 11 15 28 10 16 29 19 6 12 16 6 13 6 6 2 9 16 13 14 21 15 15 13 17 8 14 18 13 6 21 10 21 27 20
38 44 45 40 37 31 25 27 23 19 13 34 20 25 27 32 25 8 14 13 4 8 8 7 6 6 9 12 15 19 12 8 8 12 7 8 18 16 3 21 27 25 25 17
35 43 40 38 36 29 27 22 24 24 20 30 36 32 21 24 21 18 17 8 12 15 7 11 10 7 5 20 9 10 11 7 6 3 10 28 41 43 37 33 29 23 20 19
32 35 38 36 34 29 29 28 28 27 14 24 17 17 13 20 20 11 12 14 17 12 9 6 5 7 8 6 14 16 11 8 13 19 24 28 42 42 36 31 28 24 23 23
32 34 36 35 28 30 33 32 25 18 12 6 9 15 15 20 11 8 11 13 6 8 12 6 5 4 10 6 10 14 7 14 17 28 28 35 34 34 33 31 27 26 24 23
35 37 37 33 27 28 28 17 8 9 9 6 18 18 26 10 8 9 9 10 11 11 7 7 8 7 10 7 4 12 10 12 9 12 38 23 34 32 29 29 28 25 23 22
37 38 38 31 24 24 11 6 6 15 9 6 6 11 20 20 14 16 16 14 12 8 8 5 10 5 12 5 6 9 18 22 21 35 39 44 41 34 29 30 27 25 25 23
38 34 28 25 19 13 4 6 16 11 2 5 2 5 11 20 11 14 14 16 15 14 10 10 11 8 14 3 8 20 18 34 40 50 51 44 40 38 32 30 26 24 22 21
34 27 12 10 14 11 11 12 5 2 5 5 2 3 10 14 11 6 14 8 7 11 7 7 6 2 6 5 21 17 20 34 38 34 34 42 42 36 31 24 21 21 21 20
27 14 9 5 4 9 13 12 4 4 5 11 3 3 3 6 6 7 7 6 3 7 5 3 6 1 4 14 21 19 26 19 18 40 40 40 36 31 26 22 20 20 19 20
19 12 5 3 6 18 8 5 3 4 5 5 5 5 2 7 0 5 6 2 1 2 7 5 1 4 13 7 24 29 11 23 35 39 37 34 32 29 24 21 20 19 19 19
15 11 6 13 16 4 4 5 4 1 2 4 3 8 7 8 5 5 7 4 6 1 5 2 3 5 6 22 29 24 25 21 26 22 26 26 28 28 25 21 20 19 19 20
21 16 13 9 6 7 6 3 5 1 5 4 4 9 9 7 6 5 6 4 4 4 5 4 4 9 18 34 35 31 27 21 21 26 27 29 28 25 23 21 20 19 19 18
8 7 6 5 5 4 8 6 5 5 5 12 10 5 6 10 8 2 3 3 5 3 5 3 6 16 20 28 32 32 31 32 31 31 31 30 29 26 23 22 20 18 19 20
5 6 6 6 4 9 8 8 9 11 12 10 10 5 8 8 4 1 5 0 3 5 1 6 5 29 33 34 36 36 32 31 32 30 28 28 27 26 23 21 18 15 16 16
6 7 5 6 8 7 8 7 6 7 6 8 9 3 3 3 4 3 6 4 6 1 6 3 19 20 27 32 30 31 30 30 29 27 25 25 25 23 22 20 18 16 15 15
5 5 9 12 5 7 6 9 12 3 5 4 6 4 5 4 4 3 5 6 6 4 5 28 30 33 29 29 28 29 29 27 25 25 24 22 21 20 20 19 16 15 15 18
7 4 10 6 9 10 8 11 16 7 3 5 7 4 6 5 5 2 7 5 4 26 28 36 37 32 30 30 30 27 25 24 24 24 22 22 20 19 16 14 14 15 15 16
Wind_Direction_500mb
344 347 348 349 343 338 346 318 289 231 227 227 233 244 267 321 291 290 282 283 265 273 185 189 232 241 239 303 192 197 199 233 184 205 197 219 253 276 192 234 252 278 292 140
339 340 341 347 346 342 335 295 291 278 229 258 266 270 270 288 261 294 310 267 280 138 192 215 218 236 254 271 277 195 189 205 174 207 289 215 219 220 266 48 333 195 258 75
335 337 339 344 341 340 332 296 297 316 232 274 303 312 309 287 309 278 273 248 282 192 176 224 269 256 330 287 261 187 195 212 196 206 186 196 205 207 206 151 86 260 208 61
331 336 338 338 336 334 329 283 300 349 321 321 310 303 288 317 359 326 24 269 250 199 231 202 198 191 247 266 173 148 167 205 183 129 203 136 266 201 212 231 229 244 300 189
333 330 334 338 338 334 316 297 332 307 298 321 330 319 306 343 336 324 334 314 40 231 176 222 163 191 226 186 164 174 166 202 206 171 152 107 271 203 181 215 202 217 137 129
335 330 329 337 339 341 330 325 318 309 308 327 325 313 335 322 10 19 286 304 350 38 24 350 168 164 274 293 137 177 196 150 158 182 198 194 229 181 191 195 229 236 228 12
337 338 329 333 338 336 322 320 329 300 299 330 315 315 321 325 24 316 333 5 35 28 11 88 96 131 38 337 284 255 181 160 159 152 151 196 70 37 339 172 138 206 87 65
337 337 338 335 333 330 326 315 326 281 296 315 300 326 320 337 35 4 326 29 44 15 334 156 158 126 133 113 288 198 143 137 171 151 171 102 129 129 159 156 113 44 102 111
338 339 341 337 333 329 323 325 329 293 310 314 315 333 319 334 16 354 337 151 46 360 308 236 185 95 134 161 87 65 126 139 144 148 179 158 107 87 56 114 115 121 97 75
337 341 340 334 329 328 323 324 328 299 260 281 316 298 298 345 354 59 294 323 265 224 302 36 32 100 115 116 124 142 131 110 176 131 172 97 102 109 188 213 137 79 90 73
338 339 343 351 353 339 336 323 340 311 274 288 282 311 303 337 347 13 318 331 14 319 349 359 78 52 62 76 108 130 127 129 170 147 137 111 143 143 22 124 115 100 84 65
334 343 347 347 347 345 331 328 324 328 275 279 302 298 295 313 319 315 314 58 310 9 348 9 37 24 95 135 102 47 130 125 162 80 88 80 86 102 100 102 102 90 85 64
335 337 342 343 347 340 332 326 326 335 303 311 349 340 321 335 329 311 329 34 358 23 350 336 12 37 15 101 110 130 102 112 122 104 104 101 101 102 105 103 99 90 78 63
330 334 332 331 332 334 326 323 313 314 313 304 310 357 350 334 349 21 14 350 6 347 356 318 56 65 8 58 101 133 118 131 89 95 120 109 103 107 110 104 97 89 79 66
333 330 329 322 326 329 331 326 8 340 324 316 308 351 4 46 44 14 14 14 7 19 356 17 72 67 355 67 78 77 16 134 150 160 167 124 129 120 115 106 96 84 78 65
329 329 327 325 327 329 348 319 344 342 321 319 332 339 8 27 49 56 45 38 29 33 28 33 87 18 311 94 97 86 81 63 78 117 135 127 130 124 117 109 99 90 79 66
330 329 332 333 327 333 16 355 308 324 9 307 225 314 3 359 356 44 37 44 43 20 30 29 41 33 315 272 88 72 79 94 104 120 125 128 136 127 122 111 101 91 81 68
333 329 325 14 32 40 26 4 2 332 326 296 46 5 349 3 359 24 15 28 41 45 41 41 25 60 266 57 99 101 114 121 125 136 131 133 131 130 125 114 107 93 78 65
339 349 16 339 357 352 345 337 337 360 296 321 45 346 34 356 344 355 350 27 39 79 46 50 56 85 52 115 124 135 126 134 126 129 127 132 134 132 128 117 105 93 77 60
15 8 314 334 334 321 337 332 316 226 223 267 353 132 144 195 172 25 11 110 304 77 92 48 329 74 109 101 141 138 164 138 142 135 139 135 133 132 120 107 96 88 79 61
350 339 315 318 320 359 305 290 259 9 198 56 6 35 22 54 11 19 12 337 326 133 93 43 252 95 96 92 126 133 137 129 128 130 135 138 137 130 120 105 91 85 74 61
315 314 308 324 286 245 256 215 121 343 54 61 23 342 14 13 12 356 358 327 289 61 108 217 133 93 105 111 116 120 135 135 133 132 128 129 129 125 117 103 93 86 75 64
315 321 276 298 262 325 1 10 71 40 49 12 25 337 352 12 38 6 318 296 6 248 194 98 60 128 116 123 116 107 109 115 117 120 123 123 121 116 110 101 95 91 78 62
306 320 293 298 357 33 22 350 336 341 336 349 341 354 31 353 327 303 277 135 331 260 85 72 77 136 140 137 136 131 126 126 127 130 130 124 118 111 102 98 96 92 76 56
303 297 303 10 6 43 334 317 293 287 275 300 333 32 325 270 272 257 284 221 228 326 76 79 123 123 152 141 134 130 133 136 135 134 125 122 119 113 103 96 93 88 78 65
284 287 299 3 284 72 339 301 292 153 191 268 266 277 240 233 262 233 232 300 30 65 90 126 122 116 119 123 126 129 129 130 132 131 127 125 122 117 110 99 91 84 77 71
304 335 321 301 274 273 289 305 348 24 148 241 216 291 19 338 272 290 29 32 64 123 120 120 127 130 136 134 125 123 123 126 129 131 129 123 125 120 112 94 85 79 71 68
Wind_Speed_850mb
56 61 63 66 64 66 46 31 15 5 10 8 11 25 42 30 37 34 19 19 33 34 8 10 10 12 18 79 50 54 48 17 25 37 35 43 36 22 27 19 15 20 20 8
52 54 57 60 55 54 52 26 56 30 43 13 23 20 36 22 28 20 18 23 33 20 29 14 21 20 30 61 35 55 41 16 20 13 19 19 29 24 16 8 9 20 14 6
47 49 53 54 50 45 47 23 16 41 15 21 28 26 29 24 16 19 21 15 30 9 13 11 7 12 11 39 60 48 30 26 35 18 12 31 38 35 27 15 8 20 8 2
46 47 53 54 50 47 37 16 14 29 14 28 34 33 28 28 20 17 7 19 15 16 12 22 8 5 13 45 6 29 30 25 19 18 8 9 21 31 22 27 25 20 10 29
47 43 46 49 52 54 32 17 13 16 49 42 40 29 24 16 22 20 21 19 13 12 11 12 11 12 18 20 24 35 16 19 27 17 17 19 18 25 33 29 26 26 17 18
46 42 43 44 46 46 23 37 38 24 26 25 26 24 36 38 22 13 13 20 10 16 12 15 10 12 13 13 18 24 30 21 22 21 21 16 8 18 20 12 9 8 14 6
48 46 42 41 44 43 37 42 38 12 15 17 22 45 53 29 17 11 18 30 7 7 10 13 15 9 17 23 10 23 17 28 15 16 22 19 16 5 6 21 11 7 14 9
46 43 45 44 43 41 39 33 33 9 8 24 36 42 41 31 23 18 11 20 14 10 15 7 9 6 12 7 8 11 25 19 11 14 18 23 16 11 13 25 20 13 18 16
44 42 46 47 44 39 41 36 29 13 13 8 38 32 40 10 10 5 14 9 10 9 5 8 10 7 13 8 8 17 22 15 8 17 15 10 26 15 22 27 16 20 19 16
45 43 49 51 45 37 32 25 23 13 11 15 28 10 16 29 19 6 12 16 6 13 6 6 2 9 16 13 14 21 15 15 13 17 8 14 18 13 6 21 10 21 27 20
38 44 45 40 37 31 25 27 23 19 13 34 20 25 27 32 25 8 14 13 4 8 8 7 6 6 9 12 15 19 12 8 8 12 7 8 18 16 3 21 27 25 25 17
35 43 40 38 36 29 27 22 24 24 20 30 36 32 21 24 21 18 17 8 12 15 7 11 10 7 5 20 9 10 11 7 6 3 10 28 41 43 37 33 29 23 20 19
32 35 38 36 34 29 29 28 28 27 14 24 17 17 13 20 20 11 12 14 17 12 9 6 5 7 8 6 14 16 11 8 13 19 24 28 42 42 36 31 28 24 23 23
32 34 36 35 28 30 33 32 25 18 12 6 9 15 15 20 11 8 11 13 6 8 12 6 5 4 10 6 10 14 7 14 17 28 28 35 34 34 33 31 27 26 24 23
35 37 37 33 27 28 28 17 8 9 9 6 18 18 26 10 8 9 9 10 11 11 7 7 8 7 10 7 4 12 10 12 9 12 38 23 34 32 29 29 28 25 23 22
37 38 38 31 24 24 11 6 6 15 9 6 6 11 20 20 14 16 16 14 12 8 8 5 10 5 12 5 6 9 18 22 21 35 39 44 41 34 29 30 27 25 25 23
38 34 28 25 19 13 4 6 16 11 2 5 2 5 11 20 11 14 14 16 15 14 10 10 11 8 14 3 8 20 18 34 40 50 51 44 40 38 32 30 26 24 22 21
34 27 12 10 14 11 11 12 5 2 5 5 2 3 10 14 11 6 14 8 7 11 7 7 6 2 6 5 21 17 20 34 38 34 34 42 42 36 31 24 21 21 21 20
27 14 9 5 4 9 13 12 4 4 5 11 3 3 3 6 6 7 7 6 3 7 5 3 6 1 4 14 21 19 26 19 18 40 40 40 36 31 26 22 20 20 19 20
19 12 5 3 6 18 8 5 3 4 5 5 5 5 2 7 0 5 6 2 1 2 7 5 1 4 13 7 24 29 11 23 35 39 37 34 32 29 24 21 20 19 19 19
15 11 6 13 16 4 4 5 4 1 2 4 3 8 7 8 5 5 7 4 6 1 5 2 3 5 6 22 29 24 25 21 26 22 26 26 28 28 25 21 20 19 19 20
21 16 13 9 6 7 6 3 5 1 5 4 4 9 9 7 6 5 6 4 4 4 5 4 4 9 18 34 35 31 27 21 21 26 27 29 28 25 23 21 20 19 19 18
8 7 6 5 5 4 8 6 5 5 5 12 10 5 6 10 8 2 3 3 5 3 5 3 6 16 20 28 32 32 31 32 31 31 31 30 29 26 23 22 20 18 19 20
5 6 6 6 4 9 8 8 9 11 12 10 10 5 8 8 4 1 5 0 3 5 1 6 5 29 33 34 36 36 32 31 32 30 28 28 27 26 23 21 18 15 16 16
6 7 5 6 8 7 8 7 6 7 6 8 9 3 3 3 4 3 6 4 6 1 6 3 19 20 27 32 30 31 30 30 29 27 25 25 25 23 22 20 18 16 15 15
5 5 9 12 5 7 6 9 12 3 5 4 6 4 5 4 4 3 5 6 6 4 5 28 30 33 29 29 28 29 29 27 25 25 24 22 21 20 20 19 16 15 15 18
7 4 10 6 9 10 8 11 16 7 3 5 7 4 6 5 5 2 7 5 4 26 28 36 37 32 30 30 30 27 25 24 24 24 22 22 20 19 16 14 14 15 15 16
Wind_Direction_850mb
344 347 348 349 343 338 346 318 289 231 227 227 233 244 267 321 291 290 282 283 265 273 185 189 232 241 239 303 192 197 199 233 184 205 197 219 253 276 192 234 252 278 292 140
339 340 341 347 346 342 335 295 291 278 229 258 266 270 270 288 261 294 310 267 280 138 192 215 218 236 254 271 277 195 189 205 174 207 289 215 219 220 266 48 333 195 258 75
335 337 339 344 341 340 332 296 297 316 232 274 303 312 309 287 309 278 273 248 282 192 176 224 269 256 330 287 261 187 195 212 196 206 186 196 205 207 206 151 86 260 208 61
331 336 338 338 336 334 329 283 300 349 321 321 310 303 288 317 359 326 24 269 250 199 231 202 198 191 247 266 173 148 167 205 183 129 203 136 266 201 212 231 229 244 300 189
333 330 334 338 338 334 316 297 332 307 298 321 330 319 306 343 336 324 334 314 40 231 176 222 163 191 226 186 164 174 166 202 206 171 152 107 271 203 181 215 202 217 137 129
335 330 329 337 339 341 330 325 318 309 308 327 325 313 335 322 10 19 286 304 350 38 24 350 168 164 274 293 137 177 196 150 158 182 198 194 229 181 191 195 229 236 228 12
337 338 329 333 338 336 322 320 329 300 299 330 315 315 321 325 24 316 333 5 35 28 11 88 96 131 38 337 284 255 181 160 159 152 151 196 70 37 339 172 138 206 87 65
337 337 338 335 333 330 326 315 326 281 296 315 300 326 320 337 35 4 326 29 44 15 334 156 158 126 133 113 288 198 143 137 171 151 171 102 129 129 159 156 113 44 102 111
338 339 341 337 333 329 323 325 329 293 310 314 315 333 319 334 16 354 337 151 46 360 308 236 185 95 134 161 87 65 126 139 144 148 179 158 107 87 56 114 115 121 97 75
337 341 340 334 329 328 323 324 328 299 260 281 316 298 298 345 354 59 294 323 265 224 302 36 32 100 115 116 124 142 131 110 176 131 172 97 102 109 188 213 137 79 90 73
338 339 343 351 353 339 336 323 340 311 274 288 282 311 303 337 347 13 318 331 14 319 349 359 78 52 62 76 108 130 127 129 170 147 137 111 143 143 22 124 115 100 84 65
334 343 347 347 347 345 331 328 324 328 275 279 302 298 295 313 319 315 314 58 310 9 348 9 37 24 95 135 102 47 130 125 162 80 88 80 86 102 100 102 102 90 85 64
335 337 342 343 347 340 332 326 326 335 303 311 349 340 321 335 329 311 329 34 358 23 350 336 12 37 15 101 110 130 102 112 122 104 104 101 101 102 105 103 99 90 78 63
330 334 332 331 332 334 326 323 313 314 313 304 310 357 350 334 349 21 14 350 6 347 356 318 56 65 8 58 101 133 118 131 89 95 120 109 103 107 110 104 97 89 79 66
333 330 329 322 326 329 331 326 8 340 324 316 308 351 4 46 44 14 14 14 7 19 356 17 72 67 355 67 78 77 16 134 150 160 167 124 129 120 115 106 96 84 78 65
329 329 327 325 327 329 348 319 344 342 321 319 332 339 8 27 49 56 45 38 29 33 28 33 87 18 311 94 97 86 81 63 78 117 135 127 130 124 117 109 99 90 79 66
330 329 332 333 327 333 16 355 308 324 9 307 225 314 3 359 356 44 37 44 43 20 30 29 41 33 315 272 88 72 79 94 104 120 125 128 136 127 122 111 101 91 81 68
333 329 325 14 32 40 26 4 2 332 326 296 46 5 349 3 359 24 15 28 41 45 41 41 25 60 266 57 99 101 114 121 125 136 131 133 131 130 125 114 107 93 78 65
339 349 16 339 357 352 345 337 337 360 296 321 45 346 34 356 344 355 350 27 39 79 46 50 56 85 52 115 124 135 126 134 126 129 127 132 134 132 128 117 105 93 77 60
15 8 314 334 334 321 337 332 316 226 223 267 353 132 144 195 172 25 11 110 304 77 92 48 329 74 109 101 141 138 164 138 142 135 139 135 133 132 120 107 96 88 79 61
350 339 315 318 320 359 305 290 259 9 198 56 6 35 22 54 11 19 12 337 326 133 93 43 252 95 96 92 126 133 137 129 128 130 135 138 137 130 120 105 91 85 74 61
315 314 308 324 286 245 256 215 121 343 54 61 23 342 14 13 12 356 358 327 289 61 108 217 133 93 105 111 116 120 135 135 133 132 128 129 129 125 117 103 93 86 75 64
315 321 276 298 262 325 1 10 71 40 49 12 25 337 352 12 38 6 318 296 6 248 194 98 60 128 116 123 116 107 109 115 117 120 123 123 121 116 110 101 95 91 78 62
306 320 293 298 357 33 22 350 336 341 336 349 341 354 31 353 327 303 277 135 331 260 85 72 77 136 140 137 136 131 126 126 127 130 130 124 118 111 102 98 96 92 76 56
303 297 303 10 6 43 334 317 293 287 275 300 333 32 325 270 272 257 284 221 228 326 76 79 123 123 152 141 134 130 133 136 135 134 125 122 119 113 103 96 93 88 78 65
284 287 299 3 284 72 339 301 292 153 191 268 266 277 240 233 262 233 232 300 30 65 90 126 122 116 119 123 126 129 129 130 132 131 127 125 122 117 110 99 91 84 77 71
304 335 321 301 274 273 289 305 348 24 148 241 216 291 19 338 272 290 29 32 64 123 120 120 127 130 136 134 125 123 123 126 129 131 129 123 125 120 112 94 85 79 71 68